Regional Weather Roundup
Issued by NWS

Current Version | Previous Version | Text Only | Print | Product List | Glossary On
Versions: 1 2 3 4 5 6 7 8 9 10 11 12 13 14 15 16 17 18 19 20 21 22 23 24 25 26 27 28 29 30 31 32 33 34 35 36 37 38 39 40 41 42 43 44 45 46 47 48 49 50
000
ASUS45 KABQ 302310
RWRNM
WEATHER ROUNDUP FOR NEW MEXICO
NATIONAL WEATHER SERVICE ALBUQUERQUE NM
500 PM MDT WED JUL 30 2014

NOTE: "FAIR" MEANS FEW OR NO CLOUDS BELOW 12,000 FEET AGL WITH NO
       SIGNIFICANT WEATHER OR OBSTRUCTIONS TO VISION.

      THIS PRODUCT IS RELEASED AS TWO VERSIONS.  ONE VERSION NEAR
      THE TOP OF THE HOUR CONTAINING PRELIMINARY DATA FROM ALBUQUERQUE
      AND OTHER STATIONS.  A FINAL VERSION WITH ADDITIONAL DATA IS
      ISSUED ABOUT 10 MINUTES AFTER THE HOUR.

NMZ501-503-504-510>518-310000-
NORTHWEST PLATEAU/NORTHCENTRAL MOUNTAINS

CITY           SKY/WX    TMP DP  RH WIND       PRES   REMARKS
FARMINGTON     MOSUNNY   87  44  22 W13G21    30.12F
LOS ALAMOS     MOSUNNY   74  54  50 SW13      30.30R
SANTA FE         N/A     84  51  31 VRB3      30.20F
TAOS           PTSUNNY   73  46  38 S15       30.28F THUNDER
ANGEL FIRE     CLOUDY    59  53  82 NE17      30.42R

$$
NMZ402-403-502-505>509-310000-
WESTCENTRAL MOUNTAINS/SOUTHWEST MOUNTAINS

CITY           SKY/WX    TMP DP  RH WIND       PRES   REMARKS
GALLUP         MOSUNNY   86  46  24 SW12      30.22S
SILVER CITY    SUNNY     90  45  20 NW14      30.14F

$$
NMZ407-409-411-412-310000-
SOUTHERN DESERTS

CITY           SKY/WX    TMP DP  RH WIND       PRES   REMARKS
LORDSBURG      FAIR      95  46  18 W14G24    30.05F
DEMING         MOSUNNY   98  47  17 W9        30.02F
LAS CRUCES     SUNNY     97  48  18 SE6       30.04F
HOLLOMAN AFB   MOSUNNY   97  50  20 W10       29.99F
ALAMOGORDO     MOSUNNY   97  48  19 NW7G18    30.02S
T OR C         MOSUNNY   91  53  27 SW9       30.06F

$$
NMZ519>523-310000-
CENTRAL VALLEYS/CENTRAL HIGHLANDS

CITY           SKY/WX    TMP DP  RH WIND       PRES   REMARKS
ALBUQUERQUE    PTSUNNY   88  51  28 VRB3      30.13F
DOUBLE EAGLE   PTSUNNY   88  52  29 W15       30.17F
MORIARTY ARPT  MOCLDY    82  56  42 E14       30.22S
CLINES CORNERS MOSUNNY   75  59  57 E15       30.28F
BELEN          FAIR      88  51  27 NE6       30.12S
SOCORRO        FAIR      93  48  21 E7        30.08F

$$
NMZ524>526-539-540-310000-
SOUTHCENTRAL MOUNTAINS

CITY           SKY/WX    TMP DP  RH WIND       PRES   REMARKS
RUIDOSO        MOSUNNY   75  55  50 SE17G28   30.29S

$$
NMZ527>531-310000-
NORTHEAST HIGHLANDS/NORTHEAST PLAINS

CITY           SKY/WX    TMP DP  RH WIND       PRES   REMARKS
LAS VEGAS      LGT RAIN  61  58  90 E8        30.34R
RATON          CLOUDY    65  54  67 NE18      30.30R
CLAYTON        CLOUDY    67  57  70 NE20      30.26R

$$
NMZ532>537-310000-
EASTCENTRAL PLAINS

CITY           SKY/WX    TMP DP  RH WIND       PRES   REMARKS
TUCUMCARI      PTSUNNY   81  58  45 NE22G30   30.13R
CANNON AFB     PTSUNNY   80  61  51 NE21G26   30.13S
CLOVIS AIRPORT NOT AVBL

$$
NMZ028-029-538-310000-
SOUTHEAST PLAINS

CITY           SKY/WX    TMP DP  RH WIND       PRES   REMARKS
ROSWELL        CLOUDY    87  64  46 N8        30.03R
ARTESIA        CLOUDY    88  59  37 NW9       30.02F
CARLSBAD       CLOUDY    89  57  33 W15       29.97F
HOBBS          MOSUNNY   95  59  30 N20G28    30.01R


$$



USA.gov is the U.S. government's official web portal to all federal, state and local government web resources and services.